Location: Bukit Nyuki
(2.5885°N, 113.7476°E)
Time: 04:40:50
(UTC+00:00)

USA 215 - Pass Details

Date: 18 May 2021
Orbit: 1100 x 1107 km, 123.0° (Epoch: 14 June)

Event Time Altitude Azimuth Distance (km) Brightness Sun altitude
Rises 21:10:27 0° 163° (SSE) 3,918 6.1 -15.8°
Reaches altitude 10° 21:13:11 10° 172° (S) 2,958 5.4 -15.1°
Maximum altitude 21:18:54 33° 233° (SW) 1,751 3.8 -13.8°
Drops below altitude 10° 21:24:38 10° 295° (WNW) 2,949 5.1 -12.5°
Sets 21:27:22 0° 304° (NW) 3,905 5.8 -11.8°
